Weather in Snizhkiv

Ukraine / Kharkiv Region     49°47′35″N   35°30′28″E
temp.,
°C
wind,
m/s
gust,
m/s
humid.,
%
clouds,
%
prec.,
mm/h
press.,
hPa
HPBL,
m
10 april, sat
sat1000:00+4nne34645 0.0 102668
03:00+3nne33681 0.0 102743
06:00+2ne33710 0.0 102737
09:00+7nne34530 0.0 1027411
12:00+10nne33375 0.0 10261964
15:00+12n333472 0.0 10252027
18:00+11n343721 0.0 10251875
21:00+7n35525 0.0 102675
11 april, sun
sun1100:00+6n35600 0.0 102773
03:00+5nne35640 0.0 102784
06:00+4nne36680 0.0 1028108
09:00+8ne58517 0.0 1029540
12:00+12ne6738100 0.0 10281284
15:00+14ne673299 0.0 10261383
18:00+13ne6839100 0.0 1026974
21:00+9ne5115094 0.0 1026448
12 april, mon
mon1200:00+8nne51157100 0.0 1025314
03:00+8ne51161100 0.0 1024403
06:00+7ne51073100 0.0 1023295
09:00+9ne61080100 0.0 1022351
12:00+15e6864100 0.0 1021768
15:00+15e4965100 0.1 1020385
18:00+17sse345898 0.0 1019339
21:00+13ese227698 0.0 102018
13 april, tue
tue1300:00+10se3481100 0.0 102064
03:00+10ssw2391100 0.0 102062
06:00+10ssw2391100 0.0 102189
09:00+11ssw1283100 0.0 1021128
12:00+13s117092 0.0 1021422
15:00+15se016273 0.0 1020758
18:00+14se2268100 0.0 1019231
21:00+13sse1175100 0.0 101925
14 april, wed
wed1400:00+12wsw3477100 0.0 1019124
03:00+12sw1174100 0.0 101913
06:00+11ssw2277100 0.0 101838
09:00+12s2372100 0.0 1019186
12:00+13se4570100 0.0 1018598
15:00+16se465644 0.0 10171460
18:00+16sse4756100 0.3 1015383
21:00+13sse356750 0.3 1016129